Weather History for KMCK - September, 2012

Change the Weather History Date:

Monday, September 17, 2012

  Actual Average Record
Temperature  
Mean Temperature 56 °F 64 °F  
Max Temperature 71 °F 79 °F 100 °F (1927)
Min Temperature 41 °F 49 °F 32 °F (1981)
Degree Days  
Heating Degree Days 4    
Growing Degree Days 12 (Base 50)    
Moisture  
Dew Point 39 °F    
Average Humidity 50    
Maximum Humidity 77    
Minimum Humidity 26    
Precipitation  
Precipitation T in 0.05 in 0.69 in (1975)
Month to date precipitation 0.11 0.83  
Year to date precipitation 7.44 18.54  
Sea Level Pressure  
Sea Level Pressure 30.03 in    
Wind  
Wind Speed 14 mph (North)    
Max Wind Speed 25 mph    
Max Gust Speed 34 mph    
Visibility 10 miles    
Events Rain    
T = Trace of Precipitation, MM = Missing Value Source: NWS Daily Summary

Daily Weather History Graph

Daily Weather History Graph

Search for Another Location

Airport or City:

Trip Planner

Search our weather history database for the weather conditions in past years. The results will help you decide how hot, cold, wet, or windy it might be!

Date:

Astronomy

Sep. 17, 2012 Rise Set
Actual Time 7:25 AM CDT 7:46 PM CDT
Civil Twilight 6:58 AM CDT 8:14 PM CDT
Nautical Twilight 6:26 AM CDT 8:45 PM CDT
Astronomical Twilight 5:53 AM CDT 9:18 PM CDT
Moon 9:17 AM CDT (9/17) 8:29 PM CDT (9/17)
Length of Visible Light 13h 15m
Length of Day
12h 21m
Waxing Crescent, 3% of the Moon is Illuminated
Sep 17
Waxing Crescent
Sep 22
First Quarter
Sep 29
Full
Oct 8
Last Quarter
Oct 15
New

Hourly Weather History & Observations

Time (CDT) Temp. Windchill Dew Point Humidity Pressure Visibility Wind Dir Wind Speed Gust Speed Precip Events Conditions
12:53 AM 59.0 °F - 42.1 °F 53% 29.88 in 10.0 mi NNW 10.4 mph - N/A   Clear
1:53 AM 57.0 °F - 41.0 °F 55% 29.88 in 10.0 mi NNW 13.8 mph - N/A   Clear
2:53 AM 55.9 °F - 39.0 °F 53% 29.91 in 10.0 mi NNW 19.6 mph 28.8 mph N/A   Clear
3:53 AM 55.9 °F - 39.0 °F 53% 29.93 in 10.0 mi North 19.6 mph 29.9 mph N/A   Clear
4:53 AM 55.9 °F - 39.0 °F 53% 29.93 in 10.0 mi North 17.3 mph - N/A   Clear
5:53 AM 55.9 °F - 41.0 °F 57% 29.95 in 10.0 mi North 25.3 mph 33.4 mph N/A   Clear
6:53 AM 55.0 °F - 42.1 °F 62% 29.97 in 10.0 mi North 20.7 mph 27.6 mph N/A   Clear
7:53 AM 55.0 °F - 41.0 °F 59% 30.03 in 10.0 mi North 9.2 mph 18.4 mph N/A   Partly Cloudy
8:53 AM 54.0 °F - 42.1 °F 64% 30.05 in 10.0 mi North 20.7 mph 26.5 mph N/A   Partly Cloudy
9:53 AM 53.1 °F - 44.1 °F 71% 30.05 in 10.0 mi North 19.6 mph 26.5 mph 0.00 in Rain Light Rain
10:53 AM 52.0 °F - 45.0 °F 77% 30.05 in 10.0 mi NNE 21.9 mph 34.5 mph 0.00 in   Mostly Cloudy
11:53 AM 60.1 °F - 44.1 °F 55% 30.10 in 10.0 mi North 21.9 mph 26.5 mph N/A   Clear
12:53 PM 63.0 °F - 43.0 °F 48% 30.10 in 10.0 mi NNE 15.0 mph 24.2 mph N/A   Clear
1:53 PM 66.0 °F - 42.1 °F 42% 30.08 in 10.0 mi NNE 11.5 mph 17.3 mph N/A   Clear
2:53 PM 68.0 °F - 41.0 °F 37% 30.07 in 10.0 mi NNE 13.8 mph - N/A   Clear
3:53 PM 68.0 °F - 37.9 °F 33% 30.06 in 10.0 mi North 10.4 mph - N/A   Clear
4:53 PM 71.1 °F - 34.0 °F 26% 30.05 in 10.0 mi NNE 13.8 mph 20.7 mph N/A   Clear
5:53 PM 70.0 °F - 34.0 °F 27% 30.04 in 10.0 mi NE 12.7 mph - N/A   Clear
6:53 PM 68.0 °F - 35.1 °F 30% 30.06 in 10.0 mi North 8.1 mph - N/A   Clear
7:53 PM 59.0 °F - 35.1 °F 41% 30.09 in 7.0 mi North 6.9 mph - N/A   Clear
8:53 PM 57.0 °F - 35.1 °F 44% 30.10 in 9.0 mi North 5.8 mph - N/A   Clear
9:53 PM 54.0 °F - 34.0 °F 47% 30.12 in 10.0 mi NNE 3.5 mph - N/A   Clear
10:53 PM 54.0 °F - 34.0 °F 47% 30.14 in 10.0 mi Calm Calm - N/A   Clear
11:53 PM 46.0 °F 43.9 °F 37.0 °F 71% 30.14 in 10.0 mi SW 4.6 mph - N/A   Clear